Flag for Canada Weather past 2 weeks in Whitehorse, Yukon Territory, Canada

Now
32 °F

Partly sunny.


Feels Like: 27 °F
Forecast: 27 / 34 °F
Wind: 5 mph from West

Location: Withehorse

Current Time: Oct 24, 2014 at 7:49:04 PM

Latest Report: Oct 24, 2014 at 7:00 PM


Visibility: 40 mi

Pressure: 29.89 "Hg

Humidity: 87%

Dew point: 28 °F

Location of WhitehorseLocation

Historic Weather in Whitehorse — Graph

°F

Whitehorse temperature yesterday

Maximum temperature yesterday: 34 °F (at 1:00 PM)
Minimum temperature yesterday: 28 °F (at 4:00 AM)
Average temperature yesterday: 32 °F

Past Weeks' High & Low Weather Summary

 TemperatureHumidityPressure
High52 °F (Oct 10, 4:00 PM)100% (Oct 14, 10:45 AM)29.89 "Hg (Oct 14, 10:45 AM)
Low28 °F (Oct 21, 8:00 AM)50% (Oct 12, 4:00 PM)29.10 "Hg (Oct 19, 8:00 PM)
Average37 °F83%29.51 "Hg
* Reported Oct 9 7:00 PM — Oct 24 7:00 PM, Whitehorse, Weather by CustomWeather, © 2014

Note: Actual official high and low records may vary slightly from our data, if they occured in-between our weather recording intervals... More about our weather records

Advertising

Whitehorse weather history for previous 24 hours

 ConditionsComfort  
Time TempWeatherWind HumidityBarometerVisibility
7:00 PM
Oct 24
32 °FPartly sunny.5 mph87%29.89 "Hg40 mi
6:00 PM36 °FScattered clouds.2 mph75%29.87 "Hg40 mi
5:00 PM39 °FScattered clouds.6 mph65%29.86 "Hg40 mi
4:00 PM39 °FPassing clouds.6 mph70%29.85 "Hg40 mi
3:00 PM39 °FPassing clouds.8 mph70%29.85 "Hg40 mi
2:00 PM37 °FPassing clouds.12 mph70%29.85 "Hg40 mi
1:00 PM36 °FPassing clouds.13 mph75%29.86 "Hg40 mi
12:00 PM34 °FScattered clouds.14 mph81%29.85 "Hg40 mi
11:00 AM32 °FPassing clouds.13 mph87%29.84 "Hg40 mi
10:00 AM30 °FPassing clouds.15 mph93%29.84 "Hg40 mi
9:00 AM30 °FPassing clouds.13 mph86%29.83 "Hg40 mi
8:00 AM30 °FPassing clouds.14 mph86%29.82 "Hg15 mi
7:00 AM30 °FPassing clouds.8 mph86%29.82 "Hg15 mi
6:00 AM30 °FPassing clouds.6 mph93%29.81 "Hg15 mi
5:00 AM30 °FPassing clouds.6 mph93%29.80 "Hg15 mi
4:00 AM30 °FMostly cloudy.2 mph93%29.80 "Hg15 mi
3:00 AM30 °FMostly cloudy.No wind93%29.80 "Hg15 mi
2:00 AM30 °FOvercast.No wind100%29.79 "Hg15 mi
1:00 AM30 °FOvercast.2 mph100%29.79 "Hg15 mi
12:00 AM32 °FOvercast.No wind93%29.78 "Hg15 mi
11:00 PM
Oct 23
32 °FMostly cloudy.No wind93%29.77 "Hg15 mi
10:00 PM32 °FMostly cloudy.2 mph93%29.76 "Hg15 mi
9:00 PM34 °FMostly cloudy.2 mph93%29.76 "Hg8 mi
8:00 PM34 °FMostly cloudy.2 mph87%29.75 "Hg15 mi
7:00 PM34 °FMostly cloudy.No wind93%29.74 "Hg40 mi
Weather by CustomWeather, © 2014

See weather overviewHow to use our weather pages